Wind_Speed
6 5 3 2 3 4 4 4 5 7 9 10 11 12 13 13 12 11 11 11 12 12 11 10 9 8 9 9 10 10 10 10 10 10 10 10 10 10 10 10 10 10 11 11 12 12 12 11 10 11 10 10 10 10 10 11 12 12 12 12 12 12 12 11 10 10 9 8 8 7 7 7 7 7 7 6 6 6 5 5 4 3 2 1 3
6 5 3 2 1 2 4 4 4 5 7 8 10 12 13 13 13 13 12 12 12 12 12 11 10 9 10 10 11 11 11 11 11 11 11 11 11 12 11 11 12 12 13 13 14 14 13 11 10 10 10 9 9 9 10 10 10 11 11 11 11 12 12 12 11 11 11 10 10 9 9 9 9 9 9 9 8 8 7 7 7 6 5 4 3
5 5 4 2 1 1 2 3 3 4 4 6 8 10 12 13 14 14 14 13 13 12 12 11 11 10 10 11 11 11 11 11 11 12 12 12 12 12 13 13 13 14 15 15 15 15 13 11 9 9 9 9 9 9 9 9 9 10 10 10 10 10 10 10 10 10 11 11 11 10 10 10 10 10 10 10 9 8 7 7 8 8 8 6 5
4 4 3 2 1 1 2 2 3 3 3 4 5 7 9 11 13 14 14 14 13 13 13 12 12 11 11 12 12 12 12 12 12 12 13 13 13 14 14 15 15 15 16 15 15 13 12 10 8 8 9 8 8 8 7 7 7 8 8 8 9 9 9 9 8 8 9 9 9 9 9 9 9 9 8 8 7 6 5 6 6 8 9 8 8
3 3 3 2 1 1 2 3 3 3 3 3 4 4 6 7 9 11 12 13 14 14 14 14 13 13 13 13 14 14 14 14 13 14 14 15 15 16 16 16 16 15 14 14 13 11 11 10 8 8 7 7 6 6 6 6 6 6 6 6 6 7 7 7 6 6 6 7 7 7 7 7 6 6 5 5 5 4 4 4 5 7 8 9 8
3 3 2 2 1 1 2 4 4 4 4 4 4 4 4 4 5 7 9 11 12 13 13 14 13 13 14 14 15 15 15 15 15 15 15 16 16 15 14 13 13 12 12 12 10 10 10 9 7 7 6 6 5 6 6 6 6 6 5 4 4 4 4 4 4 4 5 5 5 5 5 5 5 4 3 3 3 3 3 3 4 5 6 7 8
4 3 3 3 2 2 2 4 5 5 5 5 5 5 4 4 4 5 6 8 9 10 11 12 12 12 13 13 14 14 14 14 14 14 13 13 12 11 11 10 10 10 10 9 9 9 8 7 6 6 6 5 5 6 6 6 6 6 5 5 4 4 3 3 3 3 3 3 3 3 3 3 3 2 2 2 2 2 2 2 3 4 5 6 6
4 4 4 4 3 3 3 4 5 6 7 7 7 6 6 6 5 5 5 6 7 8 9 9 10 10 10 10 10 10 10 10 9 9 9 9 8 8 8 8 8 8 8 8 8 8 7 6 6 6 5 5 5 6 6 6 6 6 6 6 5 4 3 3 3 3 3 3 2 2 2 2 2 2 2 2 2 2 2 2 2 3 3 4 5
4 4 4 4 4 4 4 4 5 6 7 8 8 8 8 7 7 7 6 6 7 7 7 8 8 9 9 8 8 8 7 7 7 7 7 6 6 6 6 6 7 7 7 6 7 7 6 5 5 5 5 5 5 4 4 5 5 5 6 6 6 5 4 4 3 3 3 3 3 3 3 3 3 3 3 3 3 2 2 2 2 2 3 3 4
4 5 4 4 4 4 4 5 5 6 7 8 9 9 9 9 9 8 8 8 8 8 8 8 8 8 8 8 8 8 7 7 7 8 7 7 7 7 7 7 7 7 7 7 6 6 6 5 5 5 5 5 4 3 3 4 4 5 5 5 6 5 5 4 3 2 3 4 4 4 5 5 5 4 3 3 3 3 2 2 2 2 2 3 3
5 5 5 5 4 4 5 5 6 6 7 8 9 9 10 10 10 10 10 10 9 9 9 9 9 9 9 8 8 8 7 7 8 8 8 8 8 8 8 8 8 8 8 7 7 7 6 6 6 6 5 5 4 4 3 4 4 4 4 5 5 5 5 4 3 1 3 5 7 7 6 6 5 4 4 4 4 4 3 3 2 2 2 3 3
6 6 6 6 5 5 5 5 5 6 7 8 9 10 10 11 11 11 11 11 11 11 11 10 10 10 10 9 10 9 8 8 9 10 9 8 9 9 9 8 9 9 8 8 8 8 7 7 7 7 6 6 5 5 5 5 5 5 5 5 5 5 5 5 4 3 2 4 6 7 7 6 4 4 4 4 4 4 4 3 3 3 3 3 3
6 6 7 7 7 6 6 6 6 6 7 8 9 10 11 11 11 12 12 13 12 12 12 12 12 12 12 11 12 11 10 10 10 10 9 9 9 9 9 9 9 9 9 9 8 8 8 8 8 9 8 7 7 6 7 6 6 6 7 7 6 6 6 5 6 5 3 4 5 6 6 6 4 4 5 5 5 5 5 4 4 5 5 4 4
7 6 7 8 8 8 7 7 7 7 7 8 9 10 11 12 12 12 13 13 14 14 14 14 14 14 14 13 14 13 12 11 11 11 10 10 10 10 10 10 10 10 10 10 9 9 9 9 10 10 9 9 9 8 9 8 8 8 8 8 8 8 7 7 7 7 6 5 6 6 6 6 5 5 5 5 6 6 5 5 5 6 6 6 5
7 7 7 8 9 9 9 8 8 8 8 8 9 9 10 11 12 13 13 14 14 15 15 15 15 15 15 15 15 14 13 13 12 13 12 12 12 11 11 11 11 11 11 11 10 11 11 10 11 11 11 10 10 10 10 10 10 9 9 10 10 9 9 9 9 9 9 8 7 7 7 7 7 6 7 7 7 7 6 7 7 7 7 7 7
7 8 8 9 9 9 10 10 9 9 9 9 9 10 10 10 11 12 13 14 14 15 15 16 16 16 16 17 17 16 15 14 14 14 13 14 13 12 12 12 12 12 12 12 11 12 12 11 12 12 12 11 11 11 11 11 10 10 10 10 10 10 10 11 11 12 11 11 10 9 9 9 9 8 8 9 9 8 8 8 8 8 8 8 9
8 8 8 9 9 9 10 10 11 10 10 10 10 11 10 10 11 11 13 14 14 15 15 16 16 16 17 17 17 17 16 15 15 16 15 14 14 13 13 13 13 13 13 13 13 13 12 12 13 12 12 12 12 11 11 11 11 10 10 10 10 10 11 12 13 13 13 13 12 11 11 11 11 10 10 10 11 10 10 9 10 10 10 10 10
9 9 9 9 9 9 10 10 11 11 11 11 11 12 11 11 11 12 12 13 14 15 15 16 16 17 17 17 18 18 17 17 17 17 16 15 15 14 14 14 14 14 14 14 14 14 13 13 13 13 13 12 12 11 11 11 10 10 10 10 10 11 11 13 13 14 14 14 14 13 13 12 12 12 12 12 13 13 12 11 12 12 12 11 12
9 10 10 10 10 10 10 10 11 11 11 11 12 12 13 12 12 12 13 13 13 14 14 15 16 17 17 18 18 18 18 17 17 18 17 17 16 15 15 15 15 15 15 15 15 14 14 14 13 13 13 12 12 11 11 11 10 10 10 10 10 11 12 13 14 14 14 14 15 15 14 14 14 14 14 14 15 15 14 14 14 14 14 13 13
11 11 11 12 11 11 11 11 11 11 11 12 12 13 13 13 13 13 13 13 14 14 14 14 15 16 17 17 18 18 18 18 17 18 18 19 18 17 17 16 16 16 16 16 16 15 15 15 14 14 14 13 12 12 12 11 11 11 10 10 11 11 12 13 13 14 14 15 15 15 15 15 15 15 15 16 16 16 17 17 16 16 16 16 15
14 13 13 13 13 13 13 13 12 12 12 12 13 13 14 14 13 13 13 14 14 14 14 14 14 15 16 17 17 18 18 18 17 17 18 19 19 19 18 17 17 16 16 17 17 16 16 16 15 15 15 14 13 13 13 13 12 12 11 11 12 12 12 13 13 14 14 15 15 16 16 16 16 16 17 17 17 18 18 18 18 18 17 17 17
18 17 16 15 15 15 15 15 14 14 14 14 14 14 14 15 15 14 14 14 14 14 14 15 14 15 15 16 17 17 18 18 18 17 18 19 20 19 19 19 18 17 17 18 19 18 17 17 17 16 16 15 15 15 15 14 14 14 13 13 13 13 13 13 13 14 14 14 15 15 16 16 17 17 17 18 18 18 18 19 19 19 19 19 19
21 21 20 19 18 17 17 17 17 17 16 15 15 15 15 16 16 15 15 15 14 14 15 15 15 15 15 16 16 17 17 18 17 17 18 19 20 20 20 19 19 18 18 18 19 19 18 19 18 17 17 17 17 17 16 16 16 15 15 15 15 14 15 14 14 14 14 14 14 15 15 15 16 16 17 18 18 18 19 19 19 19 20 20 20
23 23 22 22 21 20 20 19 19 19 19 18 17 17 17 17 17 17 16 16 16 15 15 16 16 16 16 16 16 17 17 18 17 18 18 18 19 19 20 20 19 19 18 18 19 19 19 19 19 19 18 18 19 18 18 18 17 17 16 16 16 16 16 16 15 15 15 14 14 14 14 15 15 15 16 17 17 17 18 18 19 19 20 20 20
22 23 23 23 23 23 23 23 22 22 21 20 20 19 19 19 18 18 18 17 17 17 17 16 17 17 17 17 17 17 17 18 18 18 18 18 19 19 20 20 21 20 19 19 19 20 20 20 20 20 20 20 20 20 20 20 19 19 18 17 17 17 17 17 16 16 16 15 15 14 14 14 14 14 15 15 16 16 16 17 17 18 19 20 20
22 22 23 24 24 25 26 26 26 25 24 23 22 21 21 20 20 20 19 19 19 18 18 17 17 18 18 18 18 19 18 18 18 18 18 18 19 19 20 21 21 21 20 20 20 20 20 21 21 22 21 22 22 21 21 21 21 20 19 19 19 19 18 18 17 17 17 16 16 15 15 14 14 14 14 15 15 15 15 15 16 16 17 18 19
24 24 24 25 25 26 27 28 28 28 27 26 24 23 23 23 22 22 21 20 20 20 19 19 18 19 19 19 20 20 20 20 19 18 18 18 19 19 20 21 22 22 21 20 20 20 21 21 23 23 22 23 23 23 23 23 23 22 21 21 20 20 20 19 19 18 18 17 17 17 16 15 15 15 14 14 14 15 15 15 15 15 15 17 18
25 25 25 25 25 26 27 28 29 29 29 29 27 26 25 25 24 23 23 22 22 22 21 21 21 20 21 21 21 21 21 21 20 19 19 19 19 20 20 21 22 22 21 20 20 20 21 21 23 24 23 23 24 24 24 24 24 23 22 22 22 21 21 20 20 19 19 18 18 17 17 17 17 16 16 15 15 15 15 15 15 15 15 16 17
26 26 26 25 26 26 27 28 29 30 30 30 30 28 27 26 26 25 25 24 24 24 23 23 23 23 22 22 22 22 22 22 22 21 20 20 20 20 21 21 22 23 22 21 20 21 21 22 24 25 24 24 25 26 26 26 26 25 24 24 23 22 21 21 21 21 20 19 19 18 18 18 18 17 17 17 16 15 15 15 15 15 15 15 16
27 27 26 26 26 26 27 28 29 30 31 31 31 30 29 29 28 27 27 27 26 26 26 25 25 25 25 25 24 24 24 23 23 23 22 22 21 22 21 22 22 23 24 23 22 21 22 23 24 26 25 25 26 27 27 27 27 26 25 25 24 23 22 22 22 22 21 20 20 19 19 19 18 18 18 18 17 17 16 16 15 15 15 15 15
25 25 26 26 26 26 26 27 29 30 31 31 32 32 31 31 30 29 29 29 29 28 28 27 27 27 27 27 27 27 26 26 25 25 24 23 23 23 23 23 23 23 24 25 24 23 23 24 25 27 27 26 27 28 29 28 28 27 26 26 25 24 23 23 23 23 22 22 21 21 20 20 19 19 19 19 18 18 17 17 16 16 15 15 14
19 21 23 23 24 24 24 25 27 29 30 31 31 32 32 32 32 31 31 31 31 31 30 30 29 29 29 29 29 29 29 28 28 27 26 25 25 25 25 25 24 24 25 26 26 24 24 25 26 28 28 28 28 29 29 29 29 28 28 27 27 26 25 24 24 23 23 23 22 22 22 21 21 20 20 20 19 19 18 18 17 17 16 15 15
17 18 19 21 21 21 21 22 23 25 27 29 30 30 31 32 32 32 32 33 33 33 33 33 32 32 31 31 31 31 31 31 31 31 30 28 28 28 27 26 26 26 26 27 27 27 26 26 27 28 30 29 29 30 30 30 29 29 29 29 28 28 27 26 25 24 24 24 24 23 23 23 23 22 22 22 21 20 19 19 18 17 16 16 16
19 18 18 18 19 19 19 18 18 20 22 24 26 27 27 28 29 31 32 32 33 34 34 35 35 35 34 34 34 34 34 34 34 34 34 32 31 30 29 29 28 29 29 29 29 29 28 28 28 29 31 31 31 31 31 30 30 30 31 31 30 30 29 28 27 26 26 25 25 24 24 24 24 24 24 24 23 22 21 20 20 19 18 17 17
19 18 17 16 16 18 19 18 17 17 17 18 20 21 22 23 25 27 29 30 32 33 33 34 35 36 36 36 36 37 37 37 37 37 37 35 34 33 32 31 31 31 32 32 32 31 30 30 30 30 31 33 33 33 32 32 31 31 32 32 32 32 31 30 29 28 28 27 26 26 25 25 25 25 26 26 25 24 23 22 22 21 19 19 18
16 16 16 15 16 17 18 19 18 17 16 15 16 16 17 18 19 22 25 27 29 30 32 33 34 35 36 36 37 37 38 38 38 38 38 37 36 35 35 34 33 33 34 34 34 33 32 32 32 31 32 33 34 34 34 33 32 32 33 34 34 34 33 32 32 31 30 29 28 27 27 27 26 27 27 27 27 26 25 24 23 22 21 20 19
14 14 14 14 15 16 15 15 17 17 15 13 12 12 13 13 15 18 21 23 25 27 29 31 32 32 33 34 35 36 37 37 38 38 38 38 37 36 36 36 36 35 36 36 36 35 34 34 34 33 33 34 36 36 36 35 34 34 35 35 36 36 35 35 34 33 32 31 29 29 28 28 28 28 28 28 28 27 26 26 25 24 23 22 21
12 11 11 11 12 11 9 8 10 11 11 10 9 10 10 10 12 14 16 19 22 24 26 27 28 28 29 30 31 33 34 35 37 37 38 38 38 38 38 38 38 37 37 37 37 37 37 36 35 35 35 35 36 37 37 37 37 36 37 37 38 38 37 37 36 35 34 33 31 30 30 29 30 29 29 29 29 29 28 28 27 26 25 24 23
7 6 6 6 6 6 6 5 5 7 8 9 10 10 10 10 10 11 13 15 17 19 21 23 24 24 24 25 27 29 30 32 34 35 37 38 39 40 40 40 39 39 39 39 39 39 39 39 38 37 37 37 38 38 39 40 39 39 39 39 39 39 39 38 37 37 36 34 33 32 32 31 31 31 31 31 31 30 30 30 29 28 27 25 25
3 2 2 2 3 4 5 5 6 7 7 9 10 11 12 12 12 13 13 15 16 17 18 20 21 21 22 22 24 25 27 28 30 32 34 36 38 40 41 41 41 41 41 41 41 41 41 41 40 40 41 40 40 40 41 41 42 41 41 41 41 41 40 40 39 38 37 36 35 34 33 32 32 31 31 32 32 32 32 32 31 30 28 27 26
3 3 2 1 2 4 5 7 8 9 10 10 10 11 12 13 14 14 15 16 18 19 20 20 21 21 22 22 23 24 26 26 27 29 30 32 34 37 39 41 42 43 43 42 42 42 42 42 43 43 43 43 43 42 42 43 44 44 43 43 42 42 42 42 41 39 38 38 37 36 35 34 33 31 31 32 33 33 33 33 32 31 30 29 28
4 3 2 3 4 7 9 11 12 14 14 14 14 13 13 14 15 15 16 17 18 20 22 23 24 24 24 24 24 25 26 27 28 28 29 30 32 33 36 38 40 42 43 43 43 44 44 44 44 45 45 45 45 44 44 45 45 45 45 45 45 44 44 44 42 40 40 40 39 37 36 36 34 33 32 32 33 34 35 35 34 32 31 30 29
4 4 5 6 8 10 12 14 16 17 18 18 17 16 15 14 15 15 16 17 18 19 20 22 24 25 26 26 26 26 26 27 27 28 29 30 31 32 34 36 37 39 41 43 44 44 44 44 45 45 46 47 47 47 46 46 46 46 46 48 48 47 47 45 42 41 41 41 40 38 38 37 35 35 35 34 34 34 35 36 35 33 32 31 30
5 6 7 10 12 13 15 17 19 20 20 19 18 17 16 15 14 14 14 14 15 16 18 19 21 23 25 26 26 26 27 27 26 27 27 28 29 30 32 34 35 37 38 40 42 43 44 44 45 45 46 47 48 48 48 48 48 48 48 50 50 50 50 46 43 43 42 42 41 40 39 38 37 37 36 35 34 35 35 36 35 34 33 32 31
7 8 10 12 14 15 18 19 20 20 20 19 18 17 16 15 14 13 12 12 12 14 15 16 18 20 22 23 23 24 24 25 25 25 25 25 25 26 27 29 31 33 35 37 39 40 42 44 44 45 45 46 48 49 49 50 50 49 50 52 52 52 52 49 46 46 45 44 43 41 40 39 38 38 37 36 35 35 36 36 35 35 34 33 33
9 11 12 13 14 15 17 18 19 19 19 18 17 16 15 14 14 14 13 13 13 13 14 15 17 18 19 20 21 21 21 21 22 22 22 22 22 22 22 23 24 27 29 32 35 36 38 39 41 43 44 45 46 48 49 50 51 51 52 53 53 53 54 52 51 50 49 47 45 44 42 41 40 40 38 37 36 37 37 37 36 35 35 35 34
12 13 13 13 13 14 14 15 16 16 16 16 15 15 15 15 15 15 15 16 16 16 18 18 18 18 19 19 20 20 20 20 20 21 21 21 21 21 21 21 21 22 22 24 27 30 33 35 36 38 40 42 44 47 48 48 49 51 52 53 54 54 55 54 54 53 53 51 49 46 45 43 43 42 41 39 38 38 39 38 37 36 36 36 35
15 14 14 13 12 11 11 11 12 13 14 15 15 15 15 16 16 17 18 19 19 20 21 21 21 20 20 20 20 21 21 21 22 22 23 23 23 23 23 22 22 22 22 21 21 22 25 28 31 33 35 37 40 43 45 45 47 49 49 51 53 54 55 55 55 56 56 56 53 51 49 47 46 46 43 41 40 40 39 39 38 37 37 37 36
16 16 15 14 13 11 10 10 10 12 13 15 16 17 17 18 19 19 20 21 22 23 24 24 24 23 22 21 21 22 22 22 23 24 24 25 25 25 25 24 24 24 23 23 22 21 21 22 23 26 28 30 33 37 40 42 44 45 46 47 50 53 55 56 56 57 57 58 57 54 52 51 50 48 44 43 42 40 40 40 40 39 38 38 38
18 17 16 15 14 12 10 9 9 10 12 15 18 21 22 23 23 23 23 23 24 25 26 26 26 26 26 25 24 24 24 24 25 25 26 27 27 27 27 26 26 25 25 25 24 23 22 22 22 23 23 24 26 29 33 35 38 40 42 44 46 48 51 54 56 57 57 58 58 57 54 53 54 51 47 46 44 42 42 42 41 41 40 40 39
18 17 16 14 13 12 10 9 9 9 12 15 19 23 25 28 29 29 28 27 27 27 27 27 28 28 28 28 28 28 27 28 28 29 30 30 30 30 29 29 28 27 27 27 26 25 25 24 24 24 24 24 25 25 27 29 31 33 36 39 42 44 47 50 53 55 57 58 59 59 57 56 56 55 51 50 49 48 47 45 44 43 42 41 41
Wind_Direction
23 21 23 44 84 100 118 149 173 180 184 184 185 187 192 193 192 193 195 199 203 207 207 208 209 211 211 210 211 214 217 218 219 221 223 226 227 230 237 244 250 254 258 260 262 265 269 268 265 267 268 269 270 268 266 263 261 260 260 260 260 261 261 261 262 264 266 268 269 272 277 281 284 285 287 288 284 278 271 259 250 237 216 146 111
22 21 23 27 78 100 112 126 147 167 180 187 192 193 195 198 201 205 210 214 216 218 220 221 221 220 219 215 214 215 217 220 222 224 226 228 230 233 238 243 249 255 259 262 264 267 266 261 257 258 260 264 267 266 265 265 264 263 262 261 261 260 260 260 261 263 264 267 268 270 273 276 279 281 282 280 277 273 264 253 239 227 218 205 182
22 17 19 22 74 144 131 129 137 153 170 184 195 200 203 204 206 210 213 218 219 223 226 229 230 228 226 223 220 219 220 222 224 227 230 233 236 240 245 250 255 260 262 263 264 264 262 257 252 253 258 261 263 265 266 268 269 267 265 263 261 261 260 260 260 262 264 266 267 268 270 273 276 277 278 277 273 268 261 250 236 225 218 215 207
24 14 9 15 36 163 179 169 155 154 165 177 190 201 206 209 212 214 217 220 222 225 229 233 234 232 229 228 226 225 226 227 230 233 236 241 245 249 253 258 261 262 263 260 257 256 256 255 250 251 256 257 258 261 263 264 265 265 264 263 261 260 260 260 259 259 261 262 264 265 266 267 269 270 271 270 265 258 250 241 232 224 220 219 218
12 11 353 351 6 150 185 194 191 183 178 181 190 202 206 209 214 216 218 222 225 228 231 234 235 234 232 232 232 232 232 233 235 239 243 248 252 256 258 260 260 259 257 254 250 250 252 253 250 249 251 250 251 252 253 254 255 255 256 259 260 260 259 257 256 256 256 258 259 259 260 261 261 260 258 253 249 243 240 234 225 221 220 222 224
348 352 334 326 309 214 187 190 200 203 199 197 199 207 212 213 216 216 217 220 223 227 230 233 235 236 237 237 238 239 241 242 244 246 249 252 255 257 257 257 256 254 251 251 250 252 252 253 252 249 248 247 244 244 245 246 250 252 253 256 258 257 254 250 244 245 249 250 251 254 255 257 257 251 244 242 242 239 238 227 216 214 213 217 223
335 338 324 316 288 255 215 198 198 204 207 208 209 211 217 222 225 222 219 219 221 223 225 228 231 234 238 241 244 247 248 249 249 250 251 252 254 254 253 253 253 254 254 255 255 253 253 254 255 253 249 245 241 240 241 244 249 255 259 259 257 252 241 230 223 218 226 232 232 239 242 244 249 245 239 232 230 221 216 215 209 205 206 207 213
332 339 326 316 298 268 242 222 210 206 207 209 212 214 217 223 228 230 227 225 224 225 224 225 227 228 231 234 239 242 243 244 243 243 243 246 249 251 252 253 254 255 256 256 255 254 254 253 253 255 252 247 242 239 240 245 251 256 260 261 258 255 240 222 218 199 199 209 170 179 209 212 203 201 210 181 190 195 173 194 207 199 203 202 203
337 340 331 320 307 282 263 244 230 221 214 212 212 215 218 221 224 228 231 231 231 230 229 229 228 228 229 229 229 228 226 226 227 233 236 238 240 244 247 248 247 249 249 247 248 251 251 251 250 250 249 247 246 243 243 246 251 254 258 261 261 259 252 235 225 195 179 179 150 168 192 191 192 190 186 169 177 190 170 189 205 187 195 199 198
342 338 332 322 315 295 278 261 247 239 230 223 218 218 220 222 224 226 229 231 233 235 235 234 232 232 233 232 232 229 223 219 219 228 232 232 232 233 236 238 236 236 237 234 234 238 240 243 241 239 238 241 245 244 243 247 250 254 257 261 263 263 261 259 252 207 157 155 158 183 199 193 198 196 183 176 176 186 186 192 201 187 182 193 201
331 326 321 317 316 304 290 276 260 251 244 238 232 228 225 225 225 226 229 231 233 236 237 238 238 237 237 235 236 234 229 227 227 231 232 233 234 234 234 235 233 231 233 231 228 228 229 231 232 233 234 235 238 238 238 240 243 247 252 256 262 262 262 271 279 263 149 155 168 187 210 209 202 195 187 188 186 189 193 194 193 197 189 187 200
326 316 307 304 305 300 295 288 274 262 253 247 243 240 236 233 230 228 229 231 234 237 238 238 238 239 240 238 240 238 232 232 235 238 237 237 240 241 241 240 241 239 239 239 235 233 232 233 234 239 239 237 237 236 235 234 234 235 240 245 252 256 260 270 273 266 188 175 182 192 214 225 215 202 198 199 201 201 200 199 193 200 204 197 203
330 317 304 301 299 294 292 288 283 273 264 256 250 247 245 243 239 235 231 231 233 236 239 240 239 239 239 239 241 241 236 234 236 243 243 241 242 245 247 244 246 247 247 247 245 244 241 240 242 247 249 248 247 243 241 238 236 234 236 240 245 251 257 262 263 264 243 211 210 210 220 232 229 220 214 210 215 218 213 209 205 209 212 210 212
335 324 310 304 302 297 292 286 283 279 272 266 259 254 250 248 247 244 240 237 235 235 237 239 241 241 242 241 242 242 238 236 236 243 246 245 244 243 246 247 247 248 249 249 249 250 247 245 246 251 255 255 256 253 250 247 242 240 239 242 245 248 252 252 251 255 255 244 236 233 234 241 243 239 235 228 229 233 231 223 219 221 222 220 219
336 330 321 312 309 304 298 291 284 279 276 273 269 264 257 252 250 250 248 244 241 239 238 239 240 242 244 244 245 246 242 239 237 241 243 245 246 245 247 249 250 251 251 250 249 250 250 248 248 252 256 257 259 258 257 255 251 248 246 246 247 250 252 250 248 249 251 249 245 241 242 246 247 246 248 247 246 245 243 239 234 233 234 233 230
330 326 324 319 315 310 304 298 291 284 279 276 275 272 268 261 255 252 250 249 247 245 243 242 242 242 243 245 248 250 247 242 238 241 241 241 245 245 247 250 252 254 255 254 250 251 253 250 250 252 254 256 258 260 261 260 258 256 253 252 252 254 253 252 251 250 250 249 246 242 238 240 243 244 246 250 253 255 250 248 247 244 243 242 241
317 315 316 316 314 311 308 304 301 295 288 283 279 278 275 270 264 258 253 251 251 250 249 247 246 245 245 246 248 251 251 247 242 244 244 243 244 246 248 250 252 254 256 258 254 254 255 252 252 253 253 255 256 258 260 261 261 260 260 260 260 259 256 255 253 252 252 252 250 245 240 238 240 241 243 246 251 255 254 251 251 249 248 246 244
304 302 302 304 305 307 307 306 306 304 299 292 286 283 280 276 272 268 261 256 253 251 252 251 251 250 249 249 250 252 253 252 249 251 253 250 248 248 250 252 254 256 258 259 257 256 255 254 255 255 255 255 255 257 258 259 260 261 263 264 264 262 260 259 257 256 255 255 254 250 247 244 243 242 243 245 249 253 255 252 250 250 250 248 246
289 288 288 289 290 294 298 302 306 306 305 300 293 287 284 282 278 275 271 267 261 257 254 252 253 254 254 253 253 254 255 255 252 256 260 260 258 257 257 257 258 259 260 262 261 260 258 257 257 257 257 257 258 259 260 261 261 262 264 266 266 265 264 262 262 262 260 259 257 256 253 250 248 246 245 245 247 252 254 253 251 250 251 249 248
278 276 275 276 277 279 283 288 294 299 300 299 295 290 286 283 282 280 278 275 272 268 263 258 255 256 258 257 257 257 258 259 256 256 259 262 263 264 264 264 264 264 263 264 265 264 262 262 261 261 260 261 263 264 266 267 267 268 269 270 271 270 268 268 267 266 265 264 263 262 260 256 253 250 248 247 247 250 252 254 253 251 251 251 250
276 273 270 267 268 271 273 276 281 285 287 287 289 289 286 283 282 281 280 279 277 274 271 268 263 260 260 260 261 262 262 263 261 258 258 261 263 265 267 268 268 268 267 266 267 267 266 266 265 264 265 266 267 269 271 272 273 275 277 277 278 277 276 275 274 272 270 269 268 267 265 263 260 257 254 251 249 250 251 253 255 254 253 252 252
273 272 270 266 265 266 269 272 273 273 274 277 281 283 284 283 282 278 276 276 276 275 273 271 268 265 262 262 263 263 264 264 264 262 260 260 261 264 266 267 268 268 267 268 269 269 269 268 268 267 268 269 270 272 274 276 277 280 282 283 284 284 284 283 281 279 277 274 272 270 269 268 266 264 261 258 256 254 253 253 255 256 255 254 253
267 270 269 266 264 264 264 266 267 267 269 272 273 275 278 279 279 275 272 270 270 271 271 269 267 265 264 263 263 262 263 263 263 262 261 261 262 264 265 266 267 266 265 265 268 269 270 270 270 269 269 269 270 272 274 276 278 281 283 284 287 288 289 289 287 285 283 280 277 275 273 271 270 268 267 265 262 260 258 256 255 256 256 256 255
263 266 266 263 262 261 261 260 260 260 263 266 267 269 272 272 272 272 270 267 266 266 267 267 266 264 262 262 262 261 261 261 261 260 260 261 262 264 266 267 267 266 264 263 265 267 268 269 270 269 269 270 271 272 274 275 277 280 282 284 286 288 289 290 290 289 286 284 281 280 278 275 273 272 270 269 267 266 264 262 259 258 257 257 256
256 259 262 261 260 260 260 258 256 254 255 257 259 261 262 264 266 268 267 265 263 263 264 265 266 265 264 262 261 260 260 260 260 260 260 260 261 262 264 265 266 266 265 263 263 264 266 267 268 268 268 269 271 273 274 275 277 278 280 281 283 285 287 288 289 289 288 286 284 282 280 278 275 273 273 272 271 270 268 266 264 262 260 259 258
252 251 253 255 256 257 258 258 257 255 254 253 253 254 255 257 260 263 263 262 260 260 261 261 263 265 265 264 262 261 261 261 261 260 260 260 260 260 261 262 263 264 264 263 263 263 265 266 266 267 267 269 271 272 273 274 275 277 278 279 281 282 284 285 286 287 288 288 287 285 282 279 276 274 273 273 273 272 271 269 267 265 263 262 261
258 254 250 249 250 252 254 256 257 258 257 255 253 251 251 253 255 257 259 260 259 258 258 259 259 260 261 262 262 262 262 262 262 260 260 259 259 259 258 259 261 262 262 262 263 263 263 264 265 266 267 269 270 271 272 272 274 275 276 277 278 280 281 282 283 285 287 288 289 288 287 285 281 278 275 273 273 272 272 272 272 270 268 266 264
265 263 259 254 251 251 252 253 255 257 258 258 257 254 252 252 253 255 257 258 258 257 256 256 255 255 257 258 259 260 261 263 264 263 262 260 260 259 258 259 261 262 262 261 262 262 262 262 264 266 267 267 269 270 270 271 273 274 275 276 277 278 280 281 282 283 284 285 287 288 289 289 287 285 282 279 277 274 273 274 277 276 274 271 268
270 270 268 265 260 257 256 257 256 257 258 259 260 259 257 254 253 255 256 257 257 257 255 254 254 254 255 255 256 257 259 260 261 261 261 260 260 260 260 260 261 263 263 262 261 260 260 260 262 264 265 266 267 268 269 270 271 273 274 276 277 278 279 281 282 283 284 284 285 286 287 288 289 289 289 287 285 282 279 278 279 280 278 274 271
275 275 274 273 270 267 264 263 262 260 260 260 261 261 260 258 255 254 256 257 257 257 257 257 256 256 256 256 256 256 256 257 257 257 258 258 258 259 260 259 260 262 263 262 260 259 259 259 261 262 263 263 264 265 267 268 270 273 274 275 277 278 279 280 281 282 284 284 284 284 285 286 287 288 290 290 290 289 287 285 284 283 280 276 273
282 281 280 278 277 274 269 265 264 262 261 261 261 261 260 260 258 255 254 255 257 258 259 259 259 259 259 259 260 259 259 258 257 256 256 256 256 256 256 257 258 259 261 262 261 259 258 259 260 262 262 261 262 263 266 269 271 273 274 275 275 276 277 278 279 281 282 283 283 284 284 284 285 286 288 289 290 291 291 290 289 287 283 278 276
286 284 283 282 280 279 275 269 264 262 261 260 259 259 260 260 259 258 256 255 255 256 258 259 260 261 261 262 263 263 263 263 261 259 256 254 254 253 253 254 254 255 256 259 260 259 257 258 259 262 263 263 263 264 266 269 271 272 273 273 273 274 274 275 276 277 279 281 282 283 284 284 285 286 287 287 289 290 290 291 290 289 287 282 278
292 287 284 284 284 284 281 276 269 264 261 259 257 256 257 258 260 260 259 257 256 256 257 258 259 260 262 264 265 266 266 265 265 264 260 256 254 253 252 251 252 252 253 255 257 258 257 257 258 261 264 264 264 264 265 267 268 269 270 271 272 272 272 272 273 274 275 277 279 281 282 284 285 287 287 287 287 288 289 289 288 288 287 283 279
302 295 289 286 286 287 285 281 276 270 263 259 256 254 255 256 258 260 261 261 260 258 258 258 259 260 262 264 265 267 267 267 266 265 263 260 257 254 252 250 250 250 251 252 254 255 254 254 255 257 261 262 262 262 263 264 265 266 268 269 270 271 272 272 272 273 274 275 276 278 280 282 284 285 286 286 287 287 288 288 287 286 285 282 279
306 299 292 286 284 283 283 282 282 278 269 261 256 253 254 255 257 258 260 261 262 262 261 261 261 261 262 263 265 266 267 267 266 265 264 262 260 258 255 251 250 250 250 251 251 252 252 252 252 253 256 259 260 261 261 262 263 264 266 268 269 270 271 271 272 272 273 274 276 278 279 281 282 283 283 284 285 286 287 287 286 286 285 283 280
304 298 291 284 280 279 279 280 282 282 277 269 262 257 255 257 258 258 259 260 261 262 262 262 263 264 265 265 266 266 265 265 265 264 263 263 261 260 258 255 252 251 251 251 252 252 251 250 251 251 253 256 259 260 261 261 262 263 264 266 268 269 270 271 272 272 272 273 275 278 279 280 281 281 281 282 283 284 285 285 286 286 285 284 281
301 297 292 286 284 284 284 282 282 284 284 280 274 269 265 263 262 261 261 261 261 262 262 263 264 265 266 266 266 266 265 264 263 262 263 263 263 261 260 258 255 253 252 252 253 253 253 253 253 253 253 255 258 260 261 261 261 262 263 265 267 269 270 271 271 272 273 274 276 277 278 279 280 280 280 281 282 282 283 283 284 284 284 283 282
300 299 298 295 294 297 299 295 289 290 295 299 295 288 282 277 272 268 265 264 263 264 264 265 266 267 267 267 267 267 266 265 263 262 262 262 263 262 261 260 258 256 254 253 254 254 255 255 256 256 255 255 257 259 261 261 261 261 262 263 265 267 268 269 270 272 274 275 276 277 278 278 278 278 279 280 281 281 281 281 281 281 282 282 282
298 299 301 303 307 316 325 329 321 311 312 315 313 307 300 295 290 285 281 276 272 270 269 270 271 270 269 268 267 268 269 269 267 266 264 262 262 262 262 261 260 259 257 255 254 254 255 255 255 255 255 255 255 257 258 260 260 261 261 262 264 265 266 268 269 271 272 274 275 276 277 277 277 279 280 280 280 281 281 280 279 279 279 280 280
277 262 266 293 314 327 336 342 343 336 328 324 320 318 314 310 306 302 298 294 290 285 280 278 277 276 274 272 271 270 269 269 269 268 267 265 264 263 263 262 261 260 259 258 258 256 255 255 255 254 254 254 254 255 256 258 259 260 261 261 263 264 266 267 268 269 270 272 273 274 274 274 276 278 279 280 280 280 280 279 279 279 279 278 278
242 224 226 316 340 342 343 342 342 342 340 337 331 326 323 319 314 308 303 300 298 296 293 290 287 285 282 280 278 277 275 274 273 271 270 269 267 266 265 264 264 262 261 261 260 258 257 256 255 255 256 255 255 255 255 257 259 261 262 262 262 263 265 266 266 268 269 270 271 271 272 273 275 276 276 277 278 278 278 278 279 279 278 278 278
241 240 277 323 333 338 340 339 339 340 341 341 339 335 330 324 317 312 306 301 297 295 294 294 293 292 290 288 286 284 282 281 280 278 276 273 271 269 267 266 265 265 264 263 262 261 260 258 257 256 257 257 256 255 255 256 258 260 261 262 262 262 263 263 265 267 268 269 270 271 272 273 274 274 273 274 275 276 277 277 278 278 278 278 278
244 272 305 321 329 333 334 336 337 338 340 340 339 337 332 325 319 314 309 305 301 298 296 294 293 292 291 291 290 289 288 287 285 283 281 278 276 273 271 269 267 266 265 264 264 264 263 263 262 260 259 259 258 257 256 257 257 258 259 261 262 262 261 262 265 267 268 269 270 271 271 271 272 272 272 272 273 274 275 276 277 278 278 278 277
260 290 316 329 334 336 335 336 337 338 339 339 338 336 333 328 321 315 309 305 304 303 302 300 297 294 293 292 291 291 291 292 292 291 288 285 282 279 276 274 272 270 267 265 264 264 263 263 263 263 262 262 261 260 259 258 257 257 259 261 262 262 263 263 264 264 264 265 266 267 268 268 268 269 270 271 271 272 273 275 276 277 278 278 277
272 293 314 326 332 337 340 340 339 339 338 336 335 332 330 328 325 322 319 316 315 313 310 307 304 300 298 297 296 294 293 294 296 297 298 297 294 290 285 281 277 274 272 269 267 265 264 263 262 262 262 262 262 262 261 260 259 259 259 260 261 262 264 265 263 261 261 262 262 263 264 266 267 267 269 270 270 271 272 273 275 276 276 276 276
275 291 305 317 327 335 340 342 341 339 337 334 331 327 326 326 327 329 331 331 329 323 316 311 308 304 301 299 299 299 299 299 299 301 304 305 306 304 302 297 291 285 280 276 274 271 269 266 264 262 261 261 261 261 260 261 261 260 260 260 261 263 265 265 264 263 262 262 261 262 263 264 265 266 267 269 269 270 271 272 273 273 274 274 274
273 290 304 314 324 333 339 342 341 338 335 330 326 323 322 323 324 324 324 323 321 317 314 312 311 308 304 301 299 299 300 303 304 306 307 308 310 311 311 311 308 304 299 292 285 280 277 274 271 268 265 262 261 260 259 260 260 260 260 261 262 262 263 264 264 265 264 263 262 262 261 262 262 264 265 266 268 268 270 271 272 272 272 273 272
271 289 303 311 319 327 334 338 338 335 331 327 323 318 315 315 315 316 315 315 314 313 312 311 310 310 310 307 304 302 301 302 305 307 309 310 310 311 311 312 312 313 312 311 305 297 290 285 281 278 274 271 267 264 262 260 259 260 260 260 261 261 261 261 262 263 265 265 265 264 263 262 261 261 262 263 265 267 268 270 270 270 270 270 270
270 285 296 302 306 312 320 325 329 329 326 323 320 316 312 312 311 310 309 308 307 306 305 306 305 306 308 309 308 306 305 305 306 306 307 309 309 310 309 309 309 308 309 310 311 309 306 301 296 291 288 284 279 275 270 266 263 261 260 260 260 261 261 261 261 261 263 265 266 266 265 264 263 262 262 262 262 264 266 267 267 267 267 268 269
270 281 287 291 293 295 299 305 310 314 317 318 317 315 314 312 311 309 308 306 304 302 301 301 300 300 302 305 306 306 305 306 306 307 307 308 308 308 308 307 306 304 303 303 303 303 303 304 304 303 301 299 295 289 284 279 273 268 265 261 260 260 261 262 262 261 262 263 265 265 265 264 265 264 261 260 260 260 261 261 262 263 264 265 266
272 279 282 281 280 280 281 286 291 298 306 310 311 310 309 308 307 305 305 305 305 303 301 299 297 296 297 299 301 302 302 302 303 305 306 306 306 306 306 305 304 303 301 300 298 297 297 297 298 299 300 301 301 299 296 294 289 283 276 269 264 261 260 261 262 262 262 262 263 264 263 262 263 262 260 259 258 257 256 256 257 258 260 261 263
Height
3185 3185 3185 3185 3184 3184 3184 3184 3184 3185 3185 3186 3187 3188 3189 3190 3191 3192 3192 3192 3192 3193 3193 3194 3194 3195 3195 3195 3196 3196 3196 3196 3197 3197 3197 3197 3197 3197 3197 3197 3197 3197 3197 3197 3197 3197 3197 3197 3196 3196 3196 3196 3196 3196 3196 3196 3196 3196 3197 3197 3197 3197 3197 3197 3198 3198 3198 3198 3198 3199 3199 3198 3198 3198 3198 3198 3198 3198 3198 3198 3198 3198 3198 3198 3198
3185 3185 3185 3185 3185 3185 3184 3184 3185 3185 3185 3186 3187 3188 3188 3189 3190 3191 3191 3192 3192 3193 3193 3194 3194 3194 3195 3195 3195 3195 3196 3196 3196 3196 3196 3197 3197 3197 3197 3197 3197 3197 3197 3196 3196 3196 3196 3196 3196 3196 3196 3196 3196 3196 3196 3196 3196 3196 3196 3196 3196 3196 3196 3197 3197 3197 3197 3197 3198 3198 3198 3198 3198 3198 3198 3198 3198 3197 3197 3197 3197 3197 3198 3198 3198
3185 3185 3186 3185 3185 3185 3185 3185 3185 3185 3185 3186 3186 3187 3188 3188 3189 3190 3190 3191 3192 3192 3193 3193 3194 3194 3194 3195 3195 3195 3195 3195 3196 3196 3196 3196 3196 3196 3197 3197 3197 3197 3196 3196 3196 3195 3195 3195 3196 3195 3195 3196 3196 3196 3196 3196 3196 3195 3195 3195 3195 3195 3195 3196 3196 3197 3197 3197 3197 3197 3197 3197 3197 3197 3197 3197 3197 3197 3197 3197 3196 3197 3197 3197 3197
3185 3185 3185 3185 3185 3185 3185 3185 3185 3185 3186 3186 3186 3187 3187 3188 3188 3189 3189 3190 3190 3191 3192 3192 3193 3193 3194 3194 3194 3195 3195 3195 3195 3196 3196 3196 3196 3196 3196 3196 3196 3196 3195 3195 3195 3195 3195 3195 3195 3195 3195 3195 3196 3196 3195 3195 3195 3195 3195 3195 3194 3195 3195 3195 3196 3196 3196 3196 3196 3196 3196 3196 3196 3197 3197 3197 3197 3197 3196 3196 3196 3196 3196 3197 3197
3185 3185 3185 3185 3185 3185 3185 3186 3186 3186 3186 3186 3186 3187 3187 3187 3187 3188 3188 3189 3189 3190 3191 3191 3192 3192 3193 3193 3194 3194 3194 3195 3195 3195 3195 3195 3195 3195 3195 3195 3195 3195 3195 3194 3194 3194 3194 3194 3195 3195 3195 3195 3195 3195 3195 3195 3195 3194 3194 3194 3194 3194 3194 3195 3195 3195 3195 3196 3196 3196 3196 3196 3196 3196 3196 3196 3196 3196 3196 3196 3196 3196 3196 3196 3197
3185 3185 3185 3185 3185 3185 3185 3185 3186 3186 3186 3186 3186 3186 3187 3187 3187 3187 3188 3188 3188 3189 3189 3190 3191 3191 3192 3192 3193 3193 3194 3194 3195 3195 3195 3195 3195 3195 3195 3195 3194 3195 3194 3194 3194 3194 3194 3194 3195 3195 3195 3195 3195 3195 3195 3195 3194 3194 3194 3193 3193 3194 3194 3194 3194 3195 3195 3195 3195 3195 3195 3195 3195 3196 3196 3196 3196 3196 3196 3196 3196 3196 3196 3196 3197
3185 3185 3185 3185 3185 3185 3185 3185 3185 3185 3186 3186 3186 3186 3187 3187 3187 3187 3187 3187 3188 3188 3188 3189 3189 3190 3191 3191 3192 3192 3193 3193 3194 3194 3194 3194 3194 3194 3194 3194 3194 3194 3194 3194 3195 3194 3194 3195 3195 3195 3195 3195 3195 3195 3195 3195 3194 3194 3194 3193 3193 3193 3194 3194 3194 3194 3194 3194 3194 3195 3195 3195 3195 3195 3195 3196 3196 3196 3196 3196 3196 3196 3196 3196 3196
3184 3184 3184 3184 3184 3184 3184 3184 3184 3185 3185 3185 3186 3186 3186 3186 3187 3187 3187 3187 3188 3188 3188 3188 3189 3189 3189 3190 3191 3191 3192 3192 3192 3193 3193 3193 3193 3193 3193 3194 3194 3194 3194 3194 3194 3194 3194 3194 3195 3195 3195 3195 3195 3195 3195 3195 3194 3194 3194 3194 3193 3193 3194 3194 3194 3194 3194 3194 3194 3195 3194 3195 3195 3195 3195 3196 3196 3195 3195 3195 3196 3196 3196 3196 3196
3184 3184 3184 3184 3184 3184 3184 3184 3184 3184 3184 3185 3185 3185 3186 3186 3186 3187 3187 3187 3187 3187 3188 3188 3188 3188 3189 3189 3189 3190 3190 3191 3191 3192 3192 3192 3192 3193 3193 3193 3193 3193 3194 3194 3194 3194 3194 3194 3194 3195 3195 3195 3195 3195 3195 3195 3194 3194 3194 3194 3194 3194 3194 3193 3194 3194 3194 3195 3195 3194 3194 3194 3195 3195 3195 3195 3195 3195 3195 3195 3195 3196 3196 3196 3196
3184 3184 3184 3184 3184 3184 3184 3184 3184 3184 3184 3184 3185 3185 3185 3186 3186 3186 3186 3187 3187 3187 3187 3187 3188 3188 3188 3188 3189 3189 3189 3190 3190 3191 3191 3191 3191 3192 3192 3192 3193 3193 3193 3193 3193 3194 3194 3194 3194 3194 3194 3195 3195 3195 3195 3194 3194 3194 3194 3194 3194 3194 3194 3194 3194 3194 3195 3195 3195 3194 3194 3194 3194 3194 3195 3195 3195 3195 3195 3195 3195 3195 3196 3196 3196
3184 3184 3183 3183 3183 3183 3183 3184 3184 3184 3184 3184 3184 3185 3185 3185 3185 3186 3186 3186 3187 3187 3187 3187 3187 3187 3187 3188 3188 3188 3189 3189 3190 3190 3190 3190 3191 3191 3191 3192 3192 3192 3192 3193 3193 3193 3193 3193 3193 3193 3194 3194 3194 3194 3194 3194 3194 3194 3194 3194 3194 3194 3193 3194 3194 3194 3195 3195 3194 3194 3194 3194 3194 3194 3194 3194 3195 3195 3195 3195 3195 3195 3195 3196 3196
3184 3184 3183 3183 3183 3183 3183 3183 3183 3184 3184 3184 3184 3184 3185 3185 3185 3185 3185 3186 3186 3186 3186 3187 3187 3187 3187 3187 3187 3187 3188 3189 3189 3189 3189 3190 3190 3191 3191 3191 3191 3192 3192 3192 3192 3193 3193 3193 3193 3192 3193 3193 3193 3193 3193 3193 3193 3193 3193 3193 3193 3193 3193 3193 3193 3193 3194 3194 3194 3194 3193 3193 3194 3194 3194 3194 3194 3194 3194 3194 3194 3195 3195 3195 3195
3184 3184 3183 3183 3183 3183 3183 3183 3183 3183 3183 3183 3184 3184 3184 3184 3184 3184 3185 3185 3185 3185 3186 3186 3186 3186 3186 3186 3186 3187 3187 3188 3188 3188 3189 3189 3190 3190 3191 3191 3191 3191 3191 3192 3192 3192 3192 3192 3192 3192 3192 3192 3192 3192 3193 3193 3193 3193 3193 3193 3193 3193 3193 3193 3193 3193 3193 3193 3193 3193 3193 3193 3193 3193 3193 3193 3193 3193 3194 3194 3194 3194 3194 3194 3195
3183 3183 3183 3182 3182 3182 3182 3182 3182 3183 3183 3183 3183 3183 3183 3184 3184 3184 3184 3184 3184 3185 3185 3185 3185 3185 3185 3186 3186 3186 3186 3187 3187 3187 3188 3188 3189 3189 3190 3190 3190 3190 3191 3191 3191 3191 3191 3191 3191 3191 3191 3191 3191 3192 3192 3193 3193 3193 3193 3192 3192 3192 3192 3192 3192 3192 3192 3193 3193 3193 3193 3193 3193 3193 3192 3193 3193 3193 3193 3193 3193 3193 3193 3193 3194
3183 3183 3182 3182 3182 3182 3182 3182 3182 3182 3182 3182 3182 3182 3183 3183 3183 3183 3183 3183 3184 3184 3184 3184 3184 3185 3185 3185 3185 3185 3185 3185 3186 3186 3187 3187 3187 3188 3188 3189 3189 3189 3189 3190 3190 3190 3190 3190 3190 3190 3190 3190 3190 3191 3191 3192 3192 3192 3192 3192 3192 3192 3192 3192 3191 3191 3191 3191 3192 3192 3192 3192 3192 3192 3192 3192 3192 3192 3192 3192 3192 3192 3192 3192 3193
3182 3182 3182 3182 3181 3181 3181 3181 3181 3181 3181 3181 3181 3181 3182 3182 3182 3182 3182 3182 3182 3183 3183 3183 3183 3184 3184 3184 3184 3184 3184 3185 3185 3185 3185 3185 3186 3186 3187 3187 3187 3188 3188 3188 3189 3189 3189 3189 3189 3189 3189 3189 3190 3190 3190 3191 3191 3191 3191 3191 3191 3192 3192 3191 3191 3191 3191 3190 3190 3191 3191 3191 3191 3191 3191 3191 3191 3191 3191 3191 3191 3191 3191 3191 3191
3182 3181 3181 3181 3181 3181 3180 3180 3180 3180 3180 3180 3180 3180 3180 3181 3181 3181 3181 3181 3181 3182 3182 3182 3182 3183 3183 3183 3183 3184 3184 3184 3184 3183 3184 3184 3184 3185 3185 3185 3186 3186 3186 3187 3187 3187 3187 3188 3188 3188 3188 3188 3189 3189 3189 3190 3190 3190 3190 3190 3190 3191 3191 3190 3190 3190 3190 3190 3189 3189 3189 3189 3189 3189 3189 3189 3189 3189 3190 3190 3190 3190 3190 3190 3190
3181 3181 3180 3180 3180 3180 3179 3179 3179 3179 3179 3179 3179 3179 3179 3179 3180 3180 3180 3180 3180 3181 3181 3181 3181 3181 3182 3182 3182 3183 3183 3183 3183 3183 3183 3183 3183 3183 3184 3184 3184 3185 3185 3185 3185 3186 3186 3186 3186 3186 3186 3187 3187 3187 3188 3188 3188 3188 3189 3189 3189 3189 3189 3189 3188 3189 3189 3188 3188 3188 3188 3188 3188 3188 3187 3187 3187 3187 3187 3188 3188 3188 3188 3188 3188
3180 3180 3179 3179 3179 3179 3179 3178 3178 3178 3178 3178 3178 3178 3178 3178 3178 3178 3179 3179 3179 3179 3180 3180 3180 3180 3180 3181 3181 3181 3182 3182 3183 3182 3182 3182 3182 3183 3183 3183 3183 3184 3184 3184 3184 3184 3185 3185 3185 3185 3185 3185 3186 3186 3186 3186 3187 3187 3187 3187 3188 3188 3188 3187 3187 3187 3187 3187 3187 3186 3186 3186 3186 3186 3186 3186 3185 3185 3185 3186 3186 3186 3186 3186 3186
3178 3178 3178 3178 3178 3178 3178 3177 3177 3177 3177 3177 3177 3176 3176 3177 3177 3177 3177 3177 3178 3178 3178 3178 3179 3179 3179 3179 3180 3180 3180 3181 3181 3182 3182 3181 3182 3182 3182 3182 3183 3183 3183 3183 3183 3183 3184 3184 3184 3184 3184 3184 3184 3184 3185 3185 3185 3185 3186 3186 3186 3186 3186 3186 3186 3186 3186 3185 3185 3185 3184 3184 3184 3184 3184 3184 3184 3184 3183 3183 3184 3184 3184 3184 3184
3176 3176 3176 3176 3176 3176 3176 3176 3176 3176 3175 3175 3175 3175 3175 3175 3175 3175 3176 3176 3176 3176 3177 3177 3177 3178 3178 3178 3178 3179 3179 3179 3180 3180 3181 3180 3180 3180 3180 3181 3181 3182 3182 3182 3182 3182 3183 3183 3183 3183 3183 3183 3183 3183 3183 3183 3184 3184 3184 3184 3184 3184 3184 3184 3184 3184 3184 3184 3184 3183 3183 3183 3183 3183 3183 3182 3182 3182 3182 3182 3182 3182 3182 3182 3182
3174 3174 3174 3175 3175 3175 3175 3175 3175 3174 3174 3174 3174 3173 3173 3173 3173 3174 3174 3174 3174 3175 3175 3175 3175 3176 3176 3176 3177 3177 3177 3178 3178 3179 3179 3179 3179 3179 3179 3179 3180 3180 3181 3180 3180 3181 3181 3182 3182 3182 3182 3182 3182 3182 3182 3182 3182 3183 3183 3183 3183 3183 3183 3183 3183 3183 3183 3182 3182 3182 3182 3181 3181 3181 3181 3181 3181 3180 3180 3180 3180 3180 3180 3180 3180
3172 3172 3172 3173 3173 3173 3173 3173 3173 3172 3172 3172 3172 3172 3172 3171 3171 3171 3172 3172 3172 3173 3173 3173 3173 3174 3174 3174 3175 3175 3176 3176 3176 3177 3177 3177 3177 3177 3177 3177 3178 3178 3179 3179 3179 3179 3180 3180 3180 3180 3180 3181 3181 3181 3181 3181 3181 3182 3182 3182 3182 3182 3182 3182 3182 3181 3181 3181 3181 3180 3180 3180 3180 3179 3179 3179 3179 3179 3179 3179 3179 3178 3178 3178 3178
3170 3170 3170 3170 3170 3171 3171 3171 3171 3170 3170 3170 3170 3170 3170 3170 3170 3170 3170 3170 3170 3171 3171 3171 3171 3172 3172 3172 3173 3173 3173 3174 3174 3175 3175 3176 3176 3176 3176 3176 3176 3176 3177 3177 3177 3177 3178 3178 3178 3178 3178 3179 3179 3179 3179 3179 3180 3180 3180 3180 3180 3180 3180 3180 3180 3180 3179 3179 3179 3179 3178 3178 3178 3177 3177 3177 3177 3177 3177 3177 3177 3177 3177 3176 3176
3167 3168 3168 3168 3168 3168 3168 3168 3168 3168 3168 3168 3168 3168 3168 3168 3168 3168 3168 3168 3168 3169 3169 3169 3169 3170 3170 3170 3170 3171 3171 3172 3172 3173 3173 3174 3174 3174 3174 3174 3174 3174 3175 3175 3176 3176 3176 3176 3176 3176 3176 3177 3177 3177 3177 3177 3177 3178 3178 3178 3178 3178 3178 3178 3178 3178 3178 3177 3177 3177 3176 3176 3176 3176 3175 3175 3175 3175 3175 3175 3175 3175 3175 3174 3174
3164 3165 3165 3165 3165 3165 3165 3165 3165 3166 3166 3166 3166 3166 3166 3166 3166 3166 3166 3166 3166 3166 3167 3167 3168 3168 3168 3168 3168 3169 3169 3170 3170 3171 3172 3172 3172 3173 3173 3173 3172 3173 3173 3174 3174 3174 3174 3175 3174 3174 3175 3175 3175 3175 3175 3175 3175 3175 3176 3176 3176 3176 3176 3176 3176 3176 3176 3175 3175 3175 3175 3174 3174 3174 3173 3173 3173 3173 3173 3173 3173 3173 3172 3172 3172
3161 3161 3162 3162 3162 3162 3162 3162 3163 3163 3163 3163 3164 3164 3164 3164 3164 3163 3164 3164 3164 3164 3164 3165 3165 3166 3166 3166 3166 3166 3167 3167 3168 3169 3169 3170 3170 3171 3171 3171 3171 3171 3171 3172 3172 3172 3173 3173 3172 3172 3173 3173 3173 3173 3173 3173 3173 3173 3174 3174 3174 3174 3173 3173 3174 3174 3173 3173 3173 3173 3173 3173 3172 3172 3171 3171 3171 3170 3170 3170 3170 3170 3170 3169 3169
3159 3159 3160 3160 3160 3160 3159 3159 3160 3160 3160 3161 3161 3162 3162 3162 3162 3162 3162 3162 3162 3162 3162 3162 3163 3163 3163 3163 3164 3164 3164 3165 3165 3166 3167 3168 3168 3168 3169 3169 3169 3169 3169 3169 3170 3170 3170 3171 3170 3170 3171 3171 3171 3171 3171 3171 3171 3171 3172 3172 3172 3172 3171 3171 3171 3171 3171 3171 3171 3171 3171 3171 3171 3170 3170 3169 3169 3168 3168 3168 3168 3167 3167 3167 3167
3156 3156 3157 3158 3158 3158 3158 3158 3158 3157 3158 3158 3158 3159 3160 3160 3160 3160 3160 3160 3160 3160 3160 3160 3160 3160 3160 3161 3161 3161 3162 3162 3163 3164 3164 3165 3165 3166 3166 3166 3166 3166 3166 3167 3167 3168 3168 3168 3167 3167 3168 3168 3168 3168 3168 3168 3169 3169 3169 3169 3169 3169 3169 3169 3169 3169 3169 3169 3169 3169 3169 3169 3168 3168 3168 3167 3167 3167 3166 3166 3165 3165 3165 3164 3164
3154 3154 3154 3154 3155 3156 3156 3156 3155 3155 3155 3155 3156 3156 3157 3158 3158 3158 3158 3158 3158 3158 3158 3158 3158 3158 3158 3158 3158 3159 3159 3160 3160 3161 3161 3162 3162 3163 3163 3163 3164 3164 3164 3164 3165 3165 3165 3165 3165 3165 3165 3166 3166 3165 3165 3166 3166 3166 3167 3167 3167 3167 3167 3167 3166 3166 3166 3166 3166 3166 3166 3166 3166 3165 3165 3165 3165 3165 3164 3164 3163 3162 3162 3161 3161
3151 3151 3151 3151 3151 3151 3152 3152 3152 3152 3152 3152 3152 3153 3153 3154 3155 3155 3156 3156 3156 3156 3156 3156 3156 3156 3156 3156 3156 3156 3156 3157 3157 3158 3159 3159 3159 3160 3160 3160 3161 3161 3161 3161 3162 3162 3162 3162 3162 3162 3162 3163 3163 3163 3163 3163 3163 3164 3164 3164 3164 3164 3164 3164 3164 3163 3164 3164 3164 3163 3163 3163 3163 3163 3162 3162 3162 3162 3161 3161 3161 3160 3159 3159 3159
3149 3148 3148 3147 3147 3147 3147 3148 3148 3148 3148 3148 3148 3148 3149 3149 3150 3151 3152 3153 3153 3153 3153 3153 3154 3154 3154 3154 3154 3154 3154 3154 3154 3155 3155 3156 3156 3157 3157 3157 3158 3158 3158 3158 3158 3159 3159 3160 3159 3159 3159 3160 3160 3160 3160 3160 3161 3161 3161 3161 3161 3161 3161 3161 3161 3161 3161 3161 3161 3161 3160 3160 3160 3160 3159 3159 3159 3159 3159 3158 3158 3158 3157 3157 3157
3146 3146 3145 3145 3145 3144 3144 3144 3144 3144 3144 3144 3144 3144 3145 3145 3146 3147 3148 3149 3149 3150 3150 3151 3151 3151 3151 3151 3152 3151 3152 3152 3152 3152 3152 3153 3153 3153 3154 3154 3155 3155 3155 3155 3155 3156 3156 3156 3157 3156 3156 3156 3157 3157 3157 3158 3158 3158 3158 3158 3158 3158 3158 3158 3158 3158 3158 3158 3158 3158 3157 3157 3157 3157 3157 3157 3157 3156 3156 3156 3155 3155 3155 3155 3154
3144 3143 3143 3142 3142 3142 3141 3141 3141 3141 3140 3140 3140 3141 3141 3142 3142 3143 3144 3144 3145 3146 3146 3147 3148 3148 3148 3149 3149 3149 3149 3149 3149 3149 3149 3149 3150 3150 3151 3151 3151 3151 3151 3151 3151 3152 3152 3153 3153 3153 3152 3153 3153 3154 3154 3154 3155 3155 3155 3155 3155 3155 3155 3155 3155 3155 3155 3155 3155 3155 3155 3155 3155 3155 3154 3154 3154 3154 3154 3153 3153 3153 3153 3152 3152
3141 3140 3140 3139 3139 3139 3139 3139 3138 3138 3137 3137 3137 3137 3138 3138 3139 3139 3140 3140 3141 3141 3142 3143 3143 3144 3145 3145 3146 3146 3146 3146 3146 3146 3146 3146 3146 3147 3147 3147 3148 3147 3147 3147 3147 3148 3148 3149 3149 3149 3149 3149 3149 3150 3150 3151 3151 3151 3151 3151 3152 3152 3152 3152 3152 3152 3152 3152 3152 3152 3152 3152 3152 3152 3152 3151 3151 3151 3151 3151 3151 3150 3150 3150 3149
3138 3138 3137 3137 3136 3136 3136 3136 3136 3136 3135 3135 3135 3135 3135 3135 3136 3136 3137 3137 3137 3137 3138 3138 3139 3140 3140 3141 3142 3142 3142 3142 3142 3142 3142 3143 3143 3144 3144 3144 3144 3144 3144 3144 3144 3144 3145 3145 3145 3145 3145 3145 3145 3146 3147 3147 3147 3148 3148 3148 3148 3148 3148 3149 3149 3149 3149 3149 3150 3150 3150 3149 3149 3149 3149 3148 3148 3148 3148 3148 3148 3148 3148 3147 3147
3136 3136 3135 3135 3134 3134 3134 3134 3134 3134 3134 3134 3133 3133 3133 3133 3133 3134 3134 3134 3134 3134 3134 3134 3135 3135 3136 3136 3136 3137 3137 3138 3138 3139 3139 3139 3140 3140 3140 3140 3141 3141 3141 3141 3141 3141 3141 3142 3142 3142 3142 3142 3142 3142 3143 3143 3144 3144 3143 3144 3144 3144 3145 3145 3145 3146 3146 3147 3147 3147 3147 3147 3146 3146 3146 3145 3145 3145 3145 3145 3145 3145 3145 3144 3144
3134 3134 3134 3133 3133 3133 3133 3132 3132 3133 3133 3133 3132 3132 3131 3131 3131 3131 3131 3131 3131 3131 3131 3131 3131 3131 3131 3131 3131 3131 3132 3132 3133 3134 3135 3136 3136 3136 3137 3137 3137 3137 3137 3137 3137 3137 3137 3138 3138 3138 3139 3139 3139 3139 3139 3139 3139 3139 3139 3139 3140 3140 3140 3141 3141 3142 3143 3144 3144 3144 3144 3144 3143 3143 3143 3142 3142 3142 3142 3142 3142 3142 3142 3141 3141
3132 3132 3132 3132 3133 3133 3132 3132 3131 3131 3131 3132 3132 3131 3130 3130 3130 3129 3129 3130 3129 3129 3129 3128 3128 3128 3127 3127 3127 3127 3127 3127 3128 3129 3130 3131 3131 3132 3132 3132 3133 3133 3133 3133 3133 3133 3133 3133 3134 3134 3134 3134 3134 3134 3134 3134 3134 3134 3135 3135 3135 3135 3136 3137 3137 3138 3139 3139 3140 3140 3141 3141 3140 3140 3140 3140 3139 3139 3139 3139 3138 3138 3139 3138 3138
3131 3131 3131 3131 3131 3131 3131 3131 3130 3130 3130 3130 3130 3130 3130 3129 3129 3128 3128 3128 3128 3128 3127 3126 3126 3125 3125 3124 3123 3123 3123 3123 3123 3124 3125 3126 3126 3127 3127 3127 3128 3128 3129 3129 3129 3129 3129 3129 3129 3129 3129 3129 3129 3130 3130 3129 3129 3129 3130 3130 3130 3131 3132 3132 3133 3134 3135 3136 3136 3136 3136 3137 3137 3138 3137 3136 3136 3136 3136 3135 3135 3135 3135 3135 3135
3130 3130 3129 3129 3129 3129 3129 3129 3129 3129 3128 3128 3128 3128 3128 3128 3127 3127 3126 3126 3126 3126 3126 3125 3124 3124 3123 3122 3122 3121 3120 3120 3120 3120 3120 3121 3121 3122 3122 3122 3123 3123 3124 3124 3125 3125 3125 3125 3125 3124 3124 3125 3125 3125 3125 3125 3124 3124 3125 3125 3125 3126 3127 3127 3128 3130 3131 3131 3132 3132 3133 3133 3134 3134 3134 3133 3133 3133 3132 3132 3132 3132 3132 3132 3132
3129 3129 3128 3128 3127 3127 3127 3127 3127 3127 3127 3126 3126 3126 3126 3125 3125 3125 3124 3124 3124 3124 3124 3124 3123 3122 3121 3121 3120 3119 3118 3118 3117 3117 3117 3117 3117 3117 3117 3117 3118 3118 3119 3120 3120 3120 3120 3120 3120 3120 3120 3120 3120 3120 3121 3120 3120 3120 3120 3119 3120 3121 3121 3121 3124 3126 3126 3126 3127 3128 3129 3129 3130 3130 3130 3130 3130 3129 3129 3129 3128 3129 3129 3128 3128
3127 3127 3126 3126 3126 3126 3125 3125 3125 3125 3125 3124 3124 3124 3124 3124 3124 3123 3123 3122 3122 3121 3121 3121 3121 3121 3120 3119 3118 3117 3116 3115 3115 3114 3114 3114 3114 3113 3113 3113 3113 3113 3113 3114 3115 3115 3116 3116 3116 3116 3115 3115 3115 3116 3116 3116 3116 3116 3116 3114 3114 3114 3114 3117 3120 3121 3121 3122 3123 3124 3124 3125 3126 3126 3126 3126 3126 3126 3125 3125 3125 3125 3125 3125 3125
3126 3125 3125 3124 3124 3124 3123 3123 3123 3123 3122 3122 3122 3122 3122 3122 3122 3122 3121 3121 3120 3120 3119 3119 3118 3118 3117 3117 3116 3115 3114 3113 3112 3111 3111 3111 3110 3110 3110 3109 3109 3109 3109 3109 3109 3110 3110 3110 3111 3111 3111 3110 3110 3111 3111 3111 3111 3111 3111 3109 3109 3108 3108 3113 3116 3116 3116 3116 3117 3119 3119 3120 3121 3121 3121 3122 3123 3122 3121 3121 3122 3122 3122 3122 3122
3124 3123 3123 3123 3122 3122 3122 3121 3121 3121 3120 3120 3120 3120 3120 3120 3120 3120 3119 3119 3118 3118 3117 3117 3116 3115 3115 3114 3114 3113 3113 3111 3110 3109 3109 3108 3107 3107 3107 3106 3105 3105 3104 3104 3104 3104 3104 3104 3105 3105 3105 3105 3105 3105 3105 3105 3105 3107 3106 3104 3104 3103 3103 3108 3109 3109 3110 3110 3111 3113 3114 3115 3116 3116 3117 3118 3118 3118 3117 3118 3118 3118 3118 3118 3118
3123 3122 3121 3121 3120 3120 3120 3120 3119 3119 3119 3118 3118 3118 3118 3118 3117 3117 3117 3116 3116 3116 3115 3115 3114 3114 3113 3112 3112 3111 3110 3110 3109 3108 3107 3106 3105 3105 3104 3103 3103 3102 3101 3100 3100 3100 3099 3099 3099 3099 3099 3099 3098 3098 3099 3099 3100 3101 3101 3099 3099 3099 3099 3101 3102 3102 3104 3105 3106 3107 3108 3110 3110 3110 3111 3113 3114 3113 3113 3113 3113 3113 3113 3113 3114
3121 3120 3119 3119 3118 3118 3118 3118 3118 3117 3117 3117 3116 3116 3116 3116 3115 3115 3115 3115 3115 3114 3114 3113 3112 3112 3111 3110 3109 3109 3108 3107 3107 3106 3105 3105 3104 3103 3102 3101 3100 3099 3098 3098 3097 3096 3096 3095 3095 3094 3094 3094 3093 3092 3092 3094 3094 3094 3095 3095 3095 3094 3094 3094 3095 3096 3096 3097 3100 3102 3102 3104 3104 3104 3106 3108 3108 3108 3108 3109 3109 3109 3109 3109 3109
3119 3118 3118 3117 3116 3116 3116 3115 3115 3115 3115 3115 3115 3115 3114 3114 3114 3114 3114 3114 3113 3113 3112 3111 3110 3110 3109 3107 3106 3105 3105 3105 3104 3104 3103 3103 3102 3101 3101 3100 3099 3098 3097 3096 3095 3094 3093 3092 3091 3090 3090 3090 3089 3088 3088 3089 3088 3088 3090 3090 3089 3089 3088 3088 3089 3089 3089 3089 3093 3096 3096 3098 3098 3098 3101 3102 3103 3103 3103 3104 3104 3104 3104 3104 3104
3117 3116 3116 3115 3115 3114 3113 3113 3113 3113 3113 3113 3113 3113 3113 3113 3112 3112 3112 3112 3111 3111 3111 3110 3109 3108 3107 3106 3104 3102 3102 3102 3102 3101 3101 3100 3099 3099 3098 3098 3097 3096 3095 3094 3093 3092 3091 3090 3089 3088 3087 3086 3085 3084 3083 3084 3084 3084 3084 3084 3084 3084 3084 3083 3083 3083 3083 3083 3084 3088 3091 3091 3091 3093 3096 3097 3097 3098 3098 3098 3098 3099 3099 3099 3100
3114 3114 3114 3113 3113 3112 3111 3110 3110 3110 3110 3110 3110 3110 3110 3111 3110 3110 3110 3110 3109 3109 3109 3108 3107 3106 3105 3104 3103 3101 3099 3099 3098 3098 3098 3097 3097 3096 3096 3095 3094 3094 3093 3092 3091 3090 3089 3088 3087 3086 3084 3083 3082 3081 3080 3080 3080 3080 3080 3079 3079 3079 3079 3078 3078 3078 3079 3078 3077 3079 3084 3084 3083 3086 3090 3090 3090 3091 3091 3091 3092 3093 3094 3094 3095
3112 3112 3111 3111 3110 3110 3109 3108 3108 3108 3108 3108 3108 3108 3108 3108 3108 3108 3107 3107 3107 3107 3106 3106 3105 3104 3103 3102 3100 3099 3097 3096 3095 3095 3095 3094 3094 3093 3093 3092 3091 3091 3090 3089 3088 3087 3087 3086 3085 3084 3082 3081 3080 3078 3077 3076 3076 3076 3076 3075 3074 3074 3074 3073 3073 3074 3073 3073 3072 3072 3075 3077 3076 3078 3082 3083 3083 3083 3083 3084 3085 3087 3088 3089 3090